Main page
METAR-TAF:

METAR-TAF

Airports :

Monte Cimone, Italy

latitude: 44-12N, longitude: 010-42E, elevation: 2165 m

Current weather observation

The report was made 56 minutes ago, at 07:55 UTC
Wind 10 kt from the Northwest
Temperature 12°C
Humidity 40%
Pressure 1019 hPa
Visibility 10 km or more
no clouds below 1500 m and no cumulonimbus

METAR: LIVC 270755Z 31010KT CAVOK 12/M01 Q1019 RMK BKN BKN160 MON LIB VAL NIL VIS MIN 9999

Time: 10:51 (08:51 UTC)


TAF: missing

Weather observations and forecasts of more than 4000 airports (METAR and TAF reports).

The available stations are represented by yellow and red dots on the map.

Hover mouse over dot to see the name of the station.

Then click to see weather observations and forecasts.

To change the map : click on the green buttons with a black cross to zoom in, on the green button with a dash to zoom out, or on the green arrows for adjacent maps.


METAR-TAF: